FW3660 Weather Reports


time (UTC)temp
C
wind
direction
speed
KPH
gust
KPH
rain 1hr
cm
rain 24hr
cm
rain mn
cm
humidity
%
barometer
mb
20260503220738 19 213 25.7 43.5 0.00 0.00 0.00 39 1003.9
20260503220248 19 241 24.1 41.8 0.00 0.00 0.00 39 1003.9
20260503220239 19 205 25.7 43.5 0.00 0.00 0.00 39 1004.0
20260503215238 19 219 25.7 43.5 0.00 0.00 0.00 39 1004.1
20260503214738 19 181 25.7 43.5 0.00 0.00 0.00 39 1004.1
20260503214731 19 194 27.4 43.5 0.00 0.00 0.00 39 1004.1
20260503214334 19 227 25.7 43.5 0.00 0.00 0.00 39 1004.0
20260503213722 19 231 29.0 48.3 0.00 0.00 0.00 39 1004.3
20260503212715 19 185 20.9 48.3 0.00 0.00 0.00 39 1004.4
20260503212710 19 176 20.9 43.5 0.00 0.00 0.00 39 1004.2
20260503211702 18 211 27.4 45.1 0.00 0.00 0.00 40 1004.3
20260503211656 18 206 27.4 45.1 0.00 0.00 0.00 40 1003.9
20260503210651 18 229 25.7 46.7 0.00 0.00 0.00 42 1004.3
20260503210145 18 217 20.9 45.1 0.00 0.00 0.00 43 1004.2
20260503210135 18 216 24.1 57.9 0.00 0.00 0.00 44 1004.6
20260503205739 18 160 19.3 30.6 0.00 0.00 0.00 44 1004.3
20260503204627 18 194 24.1 57.9 0.00 0.00 0.00 44 1004.8
20260503204121 18 211 27.4 57.9 0.00 0.00 0.00 44 1004.4
20260503203615 18 260 29.0 57.9 0.00 0.00 0.00 44 1004.8
20260503203610 18 173 25.7 53.1 0.00 0.00 0.00 44 1004.9
20260503202602 17 194 25.7 53.1 0.00 0.00 0.00 44 1005.0
20260503202056 17 216 27.4 49.9 0.00 0.00 0.00 45 1005.1
20260503201550 17 203 32.2 59.5 0.00 0.00 0.00 45 1005.3
20260503201545 17 213 33.8 59.5 0.00 0.00 0.00 44 1005.5
20260503200539 17 215 33.8 59.5 0.00 0.00 0.00 44 1005.3
20260503200033 17 223 30.6 59.5 0.00 0.00 0.00 43 1005.1
20260503195527 17 193 25.7 45.1 0.00 0.00 0.00 41 1005.5
20260503195021 18 224 30.6 64.4 0.00 0.00 0.00 41 1005.5
20260503194515 18 212 32.2 64.4 0.00 0.00 0.00 40 1005.7
20260503194009 18 211 29.0 53.1 0.00 0.00 0.00 40 1005.6
20260503193503 18 225 30.6 56.3 0.00 0.00 0.00 40 1005.7
20260503192957 18 214 30.6 56.3 0.00 0.00 0.00 39 1006.1
20260503192451 18 194 29.0 51.5 0.00 0.00 0.00 39 1005.8
20260503191944 18 148 29.0 51.5 0.00 0.00 0.00 39 1005.6
20260503191437 18 225 29.0 53.1 0.00 0.00 0.00 39 1005.9
20260503190932 18 227 30.6 53.1 0.00 0.00 0.00 39 1006.0
20260503190427 17 196 32.2 53.1 0.00 0.00 0.00 39 1006.1
20260503185921 17 217 32.2 53.1 0.00 0.00 0.00 39 1006.1
20260503185415 17 175 29.0 59.5 0.00 0.00 0.00 39 1006.0
20260503184909 17 223 29.0 59.5 0.00 0.00 0.00 40 1006.1
20260503184403 17 207 27.4 56.3 0.00 0.00 0.00 41 1006.1
20260503183857 17 234 22.5 43.5 0.00 0.00 0.00 41 1006.3
20260503183351 17 184 25.7 46.7 0.00 0.00 0.00 44 1006.4
20260503182845 17 209 24.1 46.7 0.00 0.00 0.00 44 1006.3
20260503182339 17 163 22.5 40.2 0.00 0.00 0.00 45 1006.6
20260503181833 16 198 25.7 51.5 0.00 0.00 0.00 46 1006.8
20260503181327 16 229 24.1 45.1 0.00 0.00 0.00 45 1006.7
20260503180819 16 192 25.7 45.1 0.00 0.00 0.00 46 1007.0
20260503180314 16 188 24.1 45.1 0.00 0.00 0.00 46 1006.8
20260503175809 16 166 22.5 46.7 0.00 0.00 0.00 46 1007.0
20260503175304 16 173 22.5 46.7 0.00 0.00 0.00 48 1007.2
20260503174756 15 239 22.5 43.5 0.00 0.00 0.00 47 1007.1
20260503174751 15 230 20.9 43.5 0.00 0.00 0.00 48 1007.3
20260503173744 15 196 22.5 48.3 0.00 0.00 0.00 48 1007.4
20260503173739 15 245 24.1 48.3 0.00 0.00 0.00 50 1007.6
20260503172733 15 131 27.4 53.1 0.00 0.00 0.00 50 1007.7
20260503172226 14 199 27.4 53.1 0.00 0.00 0.00 50 1007.7
20260503171720 14 186 25.7 48.3 0.00 0.00 0.00 50 1007.6
20260503171214 13 257 29.0 48.3 0.00 0.00 0.00 51 1008.0
20260503170709 13 238 24.1 48.3 0.00 0.00 0.00 51 1008.2
20260503170203 14 179 20.9 43.5 0.00 0.00 0.00 52 1008.2
20260503150444 14 196 32.2 53.1 0.00 0.00 0.00 47 1009.2
20260503131319 11 227 22.5 38.6 0.00 0.00 0.00 51 1010.4
20260503130819 11 186 24.1 38.6 0.00 0.00 0.00 50 1010.4
20260503130320 11 279 22.5 35.4 0.00 0.00 0.00 50 1010.4
20260503110813 10 225 17.7 24.1 0.00 0.00 0.00 48 1010.4
20260503110312 9 211 16.1 25.7 0.00 0.00 0.00 48 1010.4
20260503100253 8 226 14.5 24.1 0.00 0.00 0.00 49 1010.7
20260503090141 8 230 12.9 19.3 0.00 0.00 0.00 49 1011.0
20260503081549 8 217 12.9 20.9 0.00 0.00 0.00 49 1011.4
20260503081042 8 173 14.5 25.7 0.00 0.00 0.00 48 1011.5
20260503080536 8 172 14.5 25.7 0.00 0.00 0.00 48 1011.5
20260503071941 8 201 9.7 19.3 0.00 0.00 0.00 49 1011.8
20260503071436 8 224 11.3 19.3 0.00 0.00 0.00 49 1011.9
20260503070930 8 184 11.3 20.9 0.00 0.00 0.00 50 1011.9
20260503070424 8 199 11.3 20.9 0.00 0.00 0.00 50 1011.9
20260503060312 8 201 9.7 16.1 0.00 0.00 0.00 50 1012.4
20260503054752 8 192 11.3 20.9 0.00 0.00 0.00 49 1012.4
20260503054248 8 205 11.3 20.9 0.00 0.00 0.00 49 1012.6
20260503053742 8 184 11.3 20.9 0.00 0.00 0.00 49 1012.6
20260503053234 8 203 11.3 20.9 0.00 0.00 0.00 49 1012.7
20260503052729 8 205 11.3 20.9 0.00 0.00 0.00 49 1012.7
20260503052224 8 231 11.3 20.9 0.00 0.00 0.00 49 1012.7
20260503051718 8 219 11.3 17.7 0.00 0.00 0.00 49 1012.7
20260503051212 8 223 11.3 19.3 0.00 0.00 0.00 49 1012.7
20260503050706 8 196 12.9 19.3 0.00 0.00 0.00 48 1012.8
20260503050158 8 223 12.9 17.7 0.00 0.00 0.00 49 1012.8
20260503045657 8 210 11.3 17.7 0.00 0.00 0.00 49 1012.7
20260503045157 8 219 11.3 19.3 0.00 0.00 0.00 49 1012.8
20260503044657 8 208 12.9 20.9 0.00 0.00 0.00 49 1012.9
20260503044157 8 202 12.9 20.9 0.00 0.00 0.00 50 1012.9
20260503043657 8 225 11.3 19.3 0.00 0.00 0.00 50 1012.9
20260503043157 8 209 11.3 17.7 0.00 0.00 0.00 51 1013.0
20260503042658 8 251 11.3 17.7 0.00 0.00 0.00 52 1012.9
20260503042159 7 223 9.7 16.1 0.00 0.00 0.00 55 1013.0
20260503042155 7 200 9.7 17.7 0.00 0.00 0.00 53 1013.0
20260503041154 7 215 9.7 14.5 0.00 0.00 0.00 56 1013.3
20260503040655 7 217 8.0 14.5 0.00 0.00 0.00 59 1013.2
20260503040155 6 209 8.0 16.1 0.00 0.00 0.00 60 1013.3
20260503035654 6 196 6.4 16.1 0.00 0.00 0.00 61 1013.2
20260503035154 6 199 8.0 11.3 0.00 0.00 0.00 62 1013.4
20260503034654 6 194 8.0 14.5 0.00 0.00 0.00 62 1013.4
20260503034155 6 194 8.0 14.5 0.00 0.00 0.00 62 1013.4
20260503033655 6 208 8.0 12.9 0.00 0.00 0.00 62 1013.5
20260503033150 6 196 4.8 12.9 0.00 0.00 0.00 62 1013.4
20260503032643 6 200 4.8 9.7 0.00 0.00 0.00 62 1013.4
20260503032140 6 199 3.2 9.7 0.00 0.00 0.00 62 1013.6
20260503031640 6 210 3.2 9.7 0.00 0.00 0.00 61 1013.6
20260503031140 6 183 3.2 9.7 0.00 0.00 0.00 61 1013.6
20260503030645 6 183 4.8 9.7 0.00 0.00 0.00 61 1013.8
20260503030641 6 218 4.8 9.7 0.00 0.00 0.00 61 1013.7
20260503025645 6 168 4.8 9.7 0.00 0.00 0.00 60 1013.7
20260503025640 7 183 4.8 9.7 0.00 0.00 0.00 60 1013.9
20260503024642 7 209 4.8 12.9 0.00 0.00 0.00 59 1013.9
20260503024638 7 192 3.2 9.7 0.00 0.00 0.00 60 1013.9
20260503024136 7 192 3.2 12.9 0.00 0.00 0.00 59 1013.9
20260503023137 7 168 6.4 12.9 0.00 0.00 0.00 59 1013.9
20260503022637 7 180 6.4 11.3 0.00 0.00 0.00 58 1013.8
20260503022142 7 200 6.4 14.5 0.00 0.00 0.00 58 1013.8
20260503022137 7 185 6.4 14.5 0.00 0.00 0.00 58 1013.9
20260503021136 7 220 6.4 11.3 0.00 0.00 0.00 57 1013.9
20260503020637 7 194 4.8 12.9 0.00 0.00 0.00 57 1013.9
20260503020136 7 185 6.4 14.5 0.00 0.00 0.00 56 1013.8
20260503015636 8 240 6.4 14.5 0.00 0.00 0.00 56 1013.9
20260503015131 8 163 6.4 12.9 0.00 0.00 0.00 56 1013.8
20260503014624 8 182 6.4 16.1 0.00 0.00 0.00 55 1013.8
20260503014121 8 181 8.0 16.1 0.00 0.00 0.00 55 1013.6
20260503014114 8 200 6.4 12.9 0.00 0.00 0.00 55 1013.6
20260503013111 8 160 6.4 12.9 0.00 0.00 0.00 54 1013.8
20260503012615 8 186 8.0 16.1 0.00 0.00 0.00 53 1013.6
20260503012611 8 144 8.0 14.5 0.00 0.00 0.00 54 1013.8
20260503011610 8 167 9.7 16.1 0.00 0.00 0.00 52 1013.7
20260503011110 9 180 9.7 16.1 0.00 0.00 0.00 52 1013.8
20260503010611 9 159 8.0 16.1 0.00 0.00 0.00 51 1013.6
20260503010116 9 132 9.7 16.1 0.00 0.00 0.00 49 1013.7
20260503010110 9 150 9.7 16.1 0.00 0.00 0.00 50 1013.6
20260503005111 10 153 9.7 16.1 0.00 0.00 0.00 49 1013.7
20260503004612 10 146 9.7 17.7 0.00 0.00 0.00 48 1013.6
20260503004112 10 178 9.7 17.7 0.00 0.00 0.00 48 1013.6
20260503003612 10 142 11.3 17.7 0.00 0.00 0.00 47 1013.6
20260503003111 10 173 12.9 20.9 0.00 0.00 0.00 47 1013.8
20260503003106 10 169 12.9 20.9 0.00 0.00 0.00 47 1013.8
20260503002108 10 163 11.3 20.9 0.00 0.00 0.00 46 1013.7
20260503001606 10 142 12.9 20.9 0.00 0.00 0.00 46 1013.8
20260503001106 10 178 12.9 22.5 0.00 0.00 0.00 46 1013.8
20260503000606 10 182 12.9 22.5 0.00 0.00 0.00 45 1013.7
20260503000108 10 143 12.9 20.9 0.00 0.00 0.00 45 1013.8
20260502235607 10 119 12.9 20.9 0.00 0.00 0.00 44 1013.9
20260502235108 11 169 12.9 19.3 0.00 0.00 0.00 44 1013.8
20260502234603 11 157 11.3 19.3 0.00 0.00 0.00 44 1013.9
20260502234108 11 145 12.9 19.3 0.00 0.00 0.00 44 1013.9
20260502234104 11 159 11.3 19.3 0.00 0.00 0.00 44 1014.0
20260502233720 11 115 11.3 20.9 0.00 0.00 0.00 44 1014.1
20260502233716 11 150 11.3 20.9 0.00 0.00 0.00 44 1014.0
20260502232716 11 169 12.9 19.3 0.00 0.00 0.00 44 1014.1
20260502231604 11 144 12.9 19.3 0.00 0.00 0.00 43 1014.1
20260502231103 11 140 12.9 19.3 0.00 0.00 0.00 43 1014.2
20260502230608 11 176 14.5 22.5 0.00 0.00 0.00 43 1014.4
20260502230603 11 123 12.9 22.5 0.00 0.00 0.00 43 1014.4
20260502230214 11 134 12.9 22.5 0.00 0.00 0.00 42 1014.4
20260502225102 11 130 12.9 20.9 0.00 0.00 0.00 42 1014.6
20260502224602 11 131 11.3 19.3 0.00 0.00 0.00 42 1014.6
20260502224105 11 175 9.7 19.3 0.00 0.00 0.00 41 1014.8
20260502224100 11 148 11.3 17.7 0.00 0.00 0.00 41 1014.8
20260502223600 12 131 9.7 17.7 0.00 0.00 0.00 41 1014.8
20260502222559 11 126 11.3 19.3 0.00 0.00 0.00 41 1015.0
20260502222058 11 132 12.9 19.3 0.00 0.00 0.00 42 1014.9
20260502221600 11 105 12.9 19.3 0.00 0.00 0.00 41 1014.8
20260502221059 12 150 11.3 19.3 0.00 0.00 0.00 42 1014.9